Location: *
(46.4833°N, 7.6667°E)
Time: 01:02:37
(UTC+00:00)

Cosmos 1346 Rocket - Pass Details

Date: 27 February 2020
Orbit: 527 x 552 km, 81.2° (Epoch: 04 April)

Event Time Altitude Azimuth Distance (km) Brightness Sun altitude
Rises 18:02:54 0° 192° (SSW) 2,692 6.5 -9.6°
Reaches altitude 10° 18:05:03 10° 194° (SSW) 1,800 5.6 -10.0°
Maximum altitude 18:09:01 80° 280° (W) 553 2.9 -10.7°
Drops below altitude 10° 18:12:59 10° 9° (N) 1,800 5.4 -11.3°
Sets 18:15:09 0° 10° (N) 2,692 6.2 -11.7°
